This is the latest recevied weather packets stored in our database for station/object KC4JES. If no packets are shown the sender has not sent any weather packets the latest 10 day(s).
| Time | Temp. | Humidity | Pressure | Rain* | Wind** | Luminosity | Snow |
|---|---|---|---|---|---|---|---|
| 1778100496 | 30° C | 57% | 1015.5 hPa | 0 mm | - | 454 W/m² | - |
| 1778100194 | 30° C | 57% | 1015.6 hPa | 0 mm | - | 532 W/m² | - |
| 1778099892 | 30° C | 57% | 1015.7 hPa | 0 mm | - | 572 W/m² | - |
| 1778099589 | 30.56° C | 57% | 1015.8 hPa | 0 mm | - | 605 W/m² | - |
| 1778099286 | 30° C | 59% | 1016 hPa | 0 mm | - | 590 W/m² | - |
| 1778098983 | 30.56° C | 58% | 1015.9 hPa | 0 mm | - | 472 W/m² | - |
| 1778098679 | 30° C | 60% | 1016.1 hPa | 0 mm | - | 567 W/m² | - |
| 1778098376 | 30° C | 62% | 1015.9 hPa | 0 mm | - | 617 W/m² | - |
| 1778098074 | 30° C | 61% | 1016.2 hPa | 0 mm | - | 703 W/m² | - |
| 1778097769 | 30° C | 61% | 1016 hPa | 0 mm | - | 512 W/m² | - |
| 1778097466 | 30.56° C | 63% | 1016.1 hPa | 0 mm | - | 700 W/m² | - |
| 1778097162 | 30.56° C | 63% | 1016.1 hPa | 0 mm | - | 656 W/m² | - |
| 1778096860 | 30.56° C | 63% | 1016 hPa | 0 mm | - | 742 W/m² | - |
| 1778096556 | 30° C | 63% | 1016.4 hPa | 0 mm | - | 680 W/m² | - |
| 1778096254 | 30° C | 64% | 1016.2 hPa | 0 mm | - | 760 W/m² | - |
| 1778095951 | 30° C | 62% | 1016.4 hPa | 0 mm | - | 653 W/m² | - |
| 1778095647 | 30° C | 63% | 1016.6 hPa | 0 mm | - | 741 W/m² | - |
| 1778095344 | 30° C | 64% | 1016.6 hPa | 0 mm | - | 770 W/m² | - |
| 1778095041 | 30° C | 62% | 1016.6 hPa | 0 mm | - | 682 W/m² | - |
| 1778094737 | 30° C | 63% | 1016.7 hPa | 0 mm | - | 736 W/m² | - |
| 1778094434 | 30.56° C | 61% | 1016.6 hPa | 0 mm | - | 903 W/m² | - |
| 1778094131 | 30.56° C | 60% | 1016.6 hPa | 0 mm | - | 882 W/m² | - |
| 1778093828 | 30.56° C | 61% | 1016.7 hPa | 0 mm | - | 706 W/m² | - |
| 1778093524 | 30.56° C | 60% | 1016.7 hPa | 0 mm | - | 834 W/m² | - |
| 1778093222 | 30.56° C | 60% | 1016.9 hPa | 0 mm | - | 907 W/m² | - |
* Rain latest hour (hover to see other rain measurements)
** Current wind speed in m/s (hover to see current wind gust speed)